Weather reports worldwide

Advertisment
Coningsby, United Kingdom (3391): temperature & dewpoint: 29.07.2020 00:00:00 - 04.08.2020 00:00:00 (BST)Coningsby, United Kingdom (3391): temperature -20cm & temperature -100cm: 29.07.2020 00:00:00 - 04.08.2020 00:00:00 (BST)Coningsby, United Kingdom (3391): wind speed: 29.07.2020 00:00:00 - 04.08.2020 00:00:00 (BST)Coningsby, United Kingdom (3391): wind direction: 29.07.2020 00:00:00 - 04.08.2020 00:00:00 (BST)Coningsby, United Kingdom (3391): reduced air pressure: 29.07.2020 00:00:00 - 04.08.2020 00:00:00 (BST)Coningsby, United Kingdom (3391): visibility: 29.07.2020 00:00:00 - 04.08.2020 00:00:00 (BST)Coningsby, United Kingdom (3391): precipitation: 29.07.2020 00:00:00 - 04.08.2020 00:00:00 (BST)
Date & Time tt [°C] td [°C] tt -20cm [°C] tt -100cm [°C] ff [km/h] ff [kn] dd ppp [hPa] vv [km] rr [mm]
04.08.2020 00:00:00 13,8 9,5 - - 9 5 W 1017,5 10 0,0
03.08.2020 23:00:00 13,5 9,3 - - 2 1 E 1017,2 10 0,0
03.08.2020 22:00:00 14,7 9,2 - - 5 3 E 1017,0 10 0,0
03.08.2020 21:00:00 15,2 9,1 - - 9 5 SE 1016,6 10 0,0
03.08.2020 20:00:00 16,3 9,0 - - 11 6 ESE 1016,2 10 0,0
03.08.2020 19:00:00 18,5 8,4 - - 5 3 SSE 1015,8 10 0,0
03.08.2020 18:00:00 17,5 9,0 - - 5 3 SSE 1015,7 10 0,0
03.08.2020 17:00:00 17,8 8,0 - - 11 6 WNW 1015,8 10 0,0
03.08.2020 16:00:00 18,1 7,7 - - 16 9 NW 1015,8 10 0,0
03.08.2020 15:00:00 19,3 7,1 - - 9 5 WNW 1015,6 10 0,0
03.08.2020 14:00:00 18,4 6,7 - - 18 10 NNW 1015,7 10 0,0
03.08.2020 13:00:00 18,4 6,9 - - 11 6 NW 1015,7 40 0,0
03.08.2020 12:00:00 18,2 8,2 - - 11 6 NNW 1015,7 10 0,0
03.08.2020 11:00:00 17,1 9,3 - - 16 9 NNW 1015,6 10 0,0
03.08.2020 10:00:00 15,8 9,9 14,2 16,2 18 10 NNW 1015,8 10 0,0
03.08.2020 09:00:00 15,9 10,6 - - 16 9 NW 1015,6 40 0,0
03.08.2020 08:00:00 13,5 9,8 - - 11 6 NNW 1015,4 10 0,0
03.08.2020 07:00:00 11,8 8,6 - - 9 5 WNW 1015,4 10 0,0
03.08.2020 06:00:00 10,5 8,2 - - 5 3 NW 1015,2 10 0,0
03.08.2020 05:00:00 11,1 8,2 - - 9 5 W 1015,0 10 0,0
03.08.2020 04:00:00 11,2 8,5 - - 8 4 NW 1015,0 10 0,0
03.08.2020 03:00:00 10,2 7,6 - - 8 4 W 1015,2 10 0,0
03.08.2020 02:00:00 12,9 8,3 - - 5 3 NNW 1015,2 10 0,0
03.08.2020 01:00:00 13,6 8,3 - - 9 5 NNW 1015,3 75 0,0
03.08.2020 00:00:00 14,3 8,1 - - 9 5 NNW 1015,3 10 0,0
02.08.2020 23:00:00 15,7 8,4 - - 8 4 NW 1015,3 10 0,0
02.08.2020 22:00:00 16,6 8,5 - - 8 4 NW 1015,2 10 0,0
02.08.2020 21:00:00 17,8 8,4 - - 15 8 NNW 1014,8 10 0,0
02.08.2020 20:00:00 19,9 8,9 - - 18 10 NW 1014,4 10 0,0
02.08.2020 19:00:00 20,8 8,6 - - 18 10 NW 1014,0 10 0,0
02.08.2020 18:00:00 21,7 9,0 - - 24 13 W 1014,0 10 0,0
02.08.2020 17:00:00 21,9 8,8 - - 21 11 NW 1014,2 10 0,0
02.08.2020 16:00:00 21,9 8,3 - - 24 13 W 1014,2 10 0,0
02.08.2020 15:00:00 21,5 7,9 - - 28 15 W 1014,5 10 0,0
02.08.2020 14:00:00 20,2 8,8 - - 24 13 W 1014,8 10 0,0
02.08.2020 13:00:00 20,2 8,2 - - 24 13 WSW 1015,0 10 0,0
02.08.2020 12:00:00 19,8 9,0 - - 24 13 WSW 1015,2 10 0,0
02.08.2020 11:00:00 19,3 9,8 - - 22 12 W 1015,2 10 0,0
02.08.2020 10:00:00 17,4 10,5 14,7 16,0 18 10 W 1015,2 40 0,0
02.08.2020 09:00:00 15,6 10,6 - - 18 10 WSW 1015,3 10 0,0
02.08.2020 08:00:00 14,6 10,6 - - 13 7 WSW 1015,5 10 0,0
02.08.2020 07:00:00 13,4 10,8 - - 11 6 SW 1015,3 10 0,0
02.08.2020 06:00:00 11,0 9,2 - - 8 4 WSW 1015,1 10 0,0
02.08.2020 05:00:00 11,1 8,8 - - 9 5 SW 1014,9 10 0,0
02.08.2020 04:00:00 11,7 8,0 - - 9 5 WSW 1015,0 55 0,0
02.08.2020 03:00:00 14,9 9,3 - - 11 6 W 1015,0 60 0,0
02.08.2020 02:00:00 15,5 9,4 - - 13 7 W 1015,0 10 0,0
02.08.2020 01:00:00 16,2 9,8 - - 11 6 WNW 1015,2 10 0,0
02.08.2020 00:00:00 17,1 9,4 - - 13 7 WNW 1015,2 10 0,0
01.08.2020 23:00:00 17,0 11,5 - - 9 5 W 1015,1 10 0,0
01.08.2020 22:00:00 18,2 11,7 - - 13 7 WNW 1014,8 10 0,0
01.08.2020 21:00:00 19,0 12,0 - - 16 9 NW 1014,6 10 0,0
01.08.2020 20:00:00 19,7 12,7 - - 16 9 NW 1014,1 10 0,0
01.08.2020 19:00:00 21,3 13,2 - - 24 13 NW 1013,7 10 0,0
01.08.2020 18:00:00 21,4 15,4 - - 16 9 NNW 1013,7 10 0,0
01.08.2020 17:00:00 22,8 13,3 - - 26 14 WNW 1013,4 10 0,0
01.08.2020 16:00:00 24,9 12,6 - - 21 11 W 1013,2 10 0,0
01.08.2020 15:00:00 24,9 11,9 - - 26 14 W 1013,3 10 0,0
01.08.2020 14:00:00 24,8 12,2 - - 22 12 W 1013,2 10 0,0
01.08.2020 13:00:00 23,1 12,4 - - 28 15 W 1013,4 10 0,0
01.08.2020 12:00:00 22,9 12,9 - - 26 14 W 1013,4 10 0,0
01.08.2020 11:00:00 21,2 12,8 - - 26 14 W 1013,4 10 0,0
01.08.2020 10:00:00 20,3 12,6 16,4 15,7 24 13 W 1013,3 10 0,0
01.08.2020 09:00:00 19,5 13,2 - - 24 13 WSW 1013,1 10 0,0
01.08.2020 08:00:00 18,0 13,2 - - 21 11 W 1012,9 10 0,0
01.08.2020 07:00:00 16,0 13,2 - - 13 7 WSW 1012,7 40 0,0
01.08.2020 06:00:00 14,6 12,7 - - 15 8 WSW 1012,3 10 0,0
01.08.2020 05:00:00 16,0 13,5 - - 18 10 WSW 1011,8 10 0,0
01.08.2020 04:00:00 16,5 13,6 - - 18 10 WSW 1011,4 10 0,0
01.08.2020 03:00:00 19,4 17,2 - - 16 9 WSW 1011,3 70 0,0
01.08.2020 02:00:00 20,5 17,1 - - 13 7 WSW 1011,0 10 0,0
01.08.2020 01:00:00 20,1 16,7 - - 18 10 WSW 1010,9 10 0,0
01.08.2020 00:00:00 21,7 16,2 - - 16 9 W 1009,6 10 0,0
31.07.2020 23:00:00 22,8 18,5 - - 16 9 SW 1009,4 30 0,0
31.07.2020 22:00:00 24,5 18,8 - - 16 9 W 1008,5 10 0,0
31.07.2020 21:00:00 27,3 17,4 - - 22 12 W 1008,4 40 0,0
31.07.2020 20:00:00 28,8 14,5 - - 13 7 SSE 1007,3 10 0,0
31.07.2020 19:00:00 30,6 14,3 - - 18 10 SE 1007,2 10 0,0
31.07.2020 18:00:00 32,3 12,3 - - 21 11 SSE 1007,6 10 0,0
31.07.2020 17:00:00 33,8 11,3 - - 24 13 SSE 1008,0 10 0,0
31.07.2020 16:00:00 34,1 9,4 - - 24 13 SSE 1008,7 10 0,0
31.07.2020 15:00:00 33,7 9,2 - - 24 13 SSE 1009,4 10 0,0
31.07.2020 14:00:00 32,7 10,4 - - 24 13 SE 1009,8 10 0,0
31.07.2020 13:00:00 31,5 11,3 - - 22 12 SSE 1010,8 10 0,0
31.07.2020 12:00:00 31,1 12,5 - - 21 11 SE 1011,6 35 0,0
31.07.2020 11:00:00 28,2 13,5 - - 21 11 SE 1012,2 10 0,0
31.07.2020 10:00:00 26,5 14,2 13,9 15,7 18 10 SE 1012,6 10 0,0
31.07.2020 09:00:00 23,4 14,5 - - 15 8 SE 1013,0 10 0,0
31.07.2020 08:00:00 19,7 14,0 - - 13 7 ESE 1013,4 10 0,0
31.07.2020 07:00:00 16,3 13,0 - - 8 4 ESE 1014,0 10 0,0
31.07.2020 06:00:00 13,5 11,5 - - 13 7 E 1013,9 10 0,0
31.07.2020 05:00:00 14,5 10,0 - - 8 4 ENE 1014,4 10 0,0
31.07.2020 04:00:00 13,9 9,9 - - 8 4 E 1015,1 10 0,0
31.07.2020 03:00:00 14,0 9,4 - - 5 3 SE 1015,6 10 0,0
31.07.2020 02:00:00 14,5 9,8 - - 5 3 SE 1015,6 10 0,0
31.07.2020 01:00:00 15,5 10,7 - - 8 4 SE 1015,8 65 0,0
31.07.2020 00:00:00 16,5 13,2 - - 8 4 ESE 1016,0 10 0,0
30.07.2020 23:00:00 16,4 13,9 - - 9 5 E 1015,9 10 0,0
30.07.2020 22:00:00 17,2 13,8 - - 13 7 E 1015,7 10 0,0
30.07.2020 21:00:00 18,9 13,9 - - 11 6 E 1015,7 10 0,0
30.07.2020 20:00:00 21,5 14,4 - - 11 6 E 1015,6 10 0,0
30.07.2020 19:00:00 23,0 14,1 - - 11 6 ESE 1015,8 10 0,0
30.07.2020 18:00:00 25,5 13,9 - - 16 9 ESE 1015,9 10 0,0
30.07.2020 17:00:00 26,5 13,3 - - 15 8 SSE 1016,2 10 0,0
30.07.2020 16:00:00 27,0 12,7 - - 16 9 SSE 1016,7 50 0,0
30.07.2020 15:00:00 26,1 12,5 - - 18 10 S 1016,9 10 0,0
30.07.2020 14:00:00 25,5 12,5 - - 15 8 SSE 1017,3 10 0,0
30.07.2020 13:00:00 24,3 12,3 - - 11 6 S 1018,0 10 0,0
30.07.2020 12:00:00 22,6 11,6 - - 15 8 S 1018,5 10 0,0
30.07.2020 11:00:00 21,0 12,2 - - 13 7 SSW 1018,9 10 0,0
30.07.2020 10:00:00 19,3 12,7 13,4 15,7 11 6 SSW 1019,0 10 0,0
30.07.2020 09:00:00 17,8 12,3 - - 8 4 S 1019,0 10 0,0
30.07.2020 08:00:00 16,1 12,6 - - 8 4 ESE 1018,6 10 0,0
30.07.2020 07:00:00 14,6 11,9 - - 5 3 SE 1018,7 10 0,0
30.07.2020 06:00:00 13,7 10,6 - - 8 4 ESE 1018,5 10 0,0
30.07.2020 05:00:00 12,6 10,8 - - 5 3 ESE 1018,6 10 0,0
30.07.2020 04:00:00 12,9 10,0 - - 9 5 E 1018,9 10 0,0
30.07.2020 03:00:00 13,9 10,4 - - 9 5 E 1018,8 10 0,0
30.07.2020 02:00:00 14,7 10,3 - - 9 5 E 1019,0 50 0,0
30.07.2020 01:00:00 15,4 10,9 - - 5 3 NNE 1019,3 55 0,0
30.07.2020 00:00:00 16,2 11,5 - - 5 3 NE 1019,2 10 0,0
29.07.2020 23:00:00 16,3 11,3 - - 5 3 SSW 1019,1 10 0,0
29.07.2020 22:00:00 17,4 11,2 - - 0 0 N 1019,2 10 0,0
29.07.2020 21:00:00 18,1 10,9 - - 5 3 WSW 1018,8 10 0,0
29.07.2020 20:00:00 19,4 10,3 - - 13 7 W 1018,6 10 0,0
29.07.2020 19:00:00 20,1 9,3 - - 21 11 W 1018,6 10 0,0
29.07.2020 18:00:00 19,9 8,7 - - 24 13 W 1018,8 10 0,0
29.07.2020 17:00:00 21,2 8,8 - - 22 12 W 1018,7 10 0,0
29.07.2020 16:00:00 20,4 7,6 - - 24 13 W 1018,9 50 0,0
29.07.2020 15:00:00 19,8 8,1 - - 22 12 W 1019,1 60 0,0
29.07.2020 14:00:00 19,1 7,8 - - 24 13 W 1019,2 10 0,0
29.07.2020 13:00:00 18,1 7,4 - - 26 14 W 1019,4 10 0,0
29.07.2020 12:00:00 17,3 7,0 - - 22 12 WNW 1019,3 10 0,0
29.07.2020 11:00:00 16,7 8,6 - - 21 11 W 1019,1 10 0,0
29.07.2020 10:00:00 15,1 8,4 13,0 15,7 21 11 W 1019,3 10 0,0
29.07.2020 09:00:00 15,1 8,5 - - 21 11 W 1018,9 10 0,0
29.07.2020 08:00:00 14,4 9,5 - - 16 9 W 1018,5 60 0,0
29.07.2020 07:00:00 13,3 10,4 - - 13 7 WSW 1018,2 10 0,0
29.07.2020 06:00:00 12,6 9,8 - - 13 7 WSW 1017,8 10 0,0
29.07.2020 05:00:00 12,6 9,6 - - 13 7 WSW 1017,3 10 0,0
29.07.2020 04:00:00 12,5 9,5 - - 15 8 WSW 1017,1 10 0,0
29.07.2020 03:00:00 12,6 9,4 - - 18 10 WSW 1016,7 10 0,0
29.07.2020 02:00:00 11,7 9,0 - - 13 7 SW 1016,9 10 0,0
29.07.2020 01:00:00 11,9 9,1 - - 15 8 SW 1017,1 10 0,0
29.07.2020 00:00:00 11,7 8,6 - - 16 9 WSW 1017,0 10 0,0

tt = temperature
td = dewpoint
tt -20cm = temperature -20cm
tt -100cm = temperature -100cm
ff = wind speed
dd = wind direction
ppp = reduced air pressure
vv = visibility
rr = precipitation

Next stations